FW0420 Weather Reports


time (UTC)temp
C
wind
direction
speed
KPH
gust
KPH
rain 1hr
cm
rain 24hr
cm
rain mn
cm
humidity
%
barometer
mb
20260503174555 15 243 14.5 30.6 0.00 0.00 0.00 43 1009.3
20260503173053 15 221 17.7 37.0 0.00 0.00 0.00 44 1009.4
20260503171550 14 246 20.9 40.2 0.00 0.00 0.00 45 1009.7
20260503081517 3 219 4.8 11.3 0.00 0.00 0.00 59 1013.1
20260503071506 3 281 1.6 9.7 0.00 0.00 0.00 61 1013.2
20260503054609 2 245 1.6 6.4 0.00 0.00 0.00 65 1013.9
20260503053051 3 225 1.6 4.8 0.00 0.00 0.00 65 1013.9
20260503051549 3 205 1.6 6.4 0.00 0.00 0.00 63 1014.0
20260503050047 3 198 1.6 6.4 0.00 0.00 0.00 62 1014.0
20260503044546 3 229 1.6 6.4 0.00 0.00 0.00 62 1014.1
20260503043052 3 221 3.2 6.4 0.00 0.00 0.00 62 1014.1
20260503041542 3 200 3.2 9.7 0.00 0.00 0.00 63 1014.1
20260503040039 3 209 3.2 6.4 0.00 0.00 0.00 62 1014.1
20260503034544 3 186 3.2 9.7 0.00 0.00 0.00 63 1014.2
20260503033036 3 188 3.2 8.0 0.00 0.00 0.00 64 1014.2
20260503031536 3 193 3.2 6.4 0.00 0.00 0.00 64 1014.4
20260503030037 3 193 1.6 4.8 0.00 0.00 0.00 64 1014.5
20260503024538 3 201 3.2 6.4 0.00 0.00 0.00 64 1014.6
20260503023037 3 249 3.2 4.8 0.00 0.00 0.00 64 1014.6
20260503021534 3 251 3.2 4.8 0.00 0.00 0.00 62 1014.6
20260503020034 3 268 1.6 4.8 0.00 0.00 0.00 61 1014.6
20260503014533 3 268 1.6 4.8 0.00 0.00 0.00 64 1014.5
20260503013039 3 268 1.6 3.2 0.00 0.00 0.00 62 1014.4
20260503011531 3 269 1.6 3.2 0.00 0.00 0.00 65 1014.4
20260503010031 4 268 1.6 3.2 0.00 0.00 0.00 59 1014.3
20260503004535 5 360 0.0 1.6 0.00 0.00 0.00 58 1014.2
20260503003042 5 360 0.0 1.6 0.00 0.00 0.00 55 1014.2
20260503001536 7 265 0.0 3.2 0.00 0.00 0.00 50 1014.2
20260503000027 7 265 0.0 4.8 0.00 0.00 0.00 47 1014.3
20260502234538 7 258 1.6 8.0 0.00 0.00 0.00 48 1014.3
20260502233037 7 300 4.8 9.7 0.00 0.00 0.00 46 1014.3
20260502231525 8 270 4.8 22.5 0.00 0.00 0.00 43 1014.4
20260502230031 8 234 8.0 20.9 0.00 0.00 0.00 45 1014.5
20260502224521 8 209 6.4 14.5 0.00 0.00 0.00 46 1014.5
20260502223032 8 283 6.4 17.7 0.00 0.00 0.00 47 1014.6
20260502221517 7 286 4.8 16.1 0.00 0.00 0.00 47 1014.7
20260502220021 7 286 4.8 17.7 0.00 0.00 0.00 46 1014.7
20260502214516 7 292 6.4 17.7 0.00 0.00 0.00 45 1014.8
20260502213013 7 265 3.2 24.1 0.00 0.00 0.00 48 1014.7
20260502211513 7 262 8.0 20.9 0.00 0.00 0.00 47 1014.8
20260502210010 7 263 11.3 20.9 0.00 0.00 0.00 47 1014.8
20260502204509 7 336 6.4 20.9 0.00 0.00 0.00 47 1015.0
20260502203008 7 355 8.0 16.1 0.00 0.00 0.00 47 1015.1
20260502201506 7 284 6.4 22.5 0.00 0.00 0.00 49 1015.2
20260502200004 7 266 9.7 16.1 0.00 0.00 0.00 49 1015.4
20260502194509 7 355 11.3 20.9 0.00 0.00 0.00 51 1015.5
20260502193003 7 330 9.7 27.4 0.00 0.00 0.00 53 1015.7
20260502191504 7 278 14.5 24.1 0.00 0.00 0.00 50 1015.8
20260502190000 6 287 11.3 22.5 0.00 0.00 0.00 48 1015.9
20260502184605 7 303 4.8 25.7 0.00 0.00 0.00 50 1015.9
20260502183059 6 277 11.3 27.4 0.00 0.00 0.00 50 1016.0
20260502183002 6 295 11.3 27.4 0.00 0.00 0.00 51 1016.0
20260502181558 6 285 14.5 22.5 0.00 0.00 0.00 52 1016.1